Torna al catalogo

TITAN 3C TRANSTAGE DEB

AttivoLEO
NORAD 3488·DEBRIS·🇺🇸 United States

Lanciato Oct 15, 1965 da Cape Canaveral Space Force Station

Loading…

Prossimi Passaggi (prossime 24 ore)

TLE

AggiornatoSource: Space-Track

Epoca: Sep 14, 2026, 05:39 UTC

1 03488U 65082QJ  26257.23563432  .00001055  00000-0  13360-3 0  9991
2 03488  32.2273 228.6247 0023637 206.4902 153.4542 14.79113287211112

Traccia TITAN 3C TRANSTAGE DEB in tempo reale con AllMySat

Download on the App Store